Time,TemperatureF,DewpointF,PressureIn,WindDirection,WindDirectionDegrees,WindSpeedMPH,WindSpeedGustMPH,Humidity,HourlyPrecipIn,Conditions,Clouds,dailyrainin,SoftwareType,DateUTC
2013-03-09 00:01:00,33.0,29.0,30.17,East,101,0.0,-999.0,86,-99.99,,,-99.99,,2013-03-09 08:01:00,
2013-03-09 00:11:00,33.0,29.0,30.17,East,101,0.0,-999.0,86,-99.99,,,-99.99,,2013-03-09 08:11:00,
2013-03-09 00:21:00,32.0,29.0,30.17,East,101,0.0,-999.0,87,-99.99,,,-99.99,,2013-03-09 08:21:00,
2013-03-09 00:31:00,32.0,29.0,30.19,East,101,0.0,-999.0,87,-99.99,,,-99.99,,2013-03-09 08:31:00,
2013-03-09 00:41:00,32.0,29.0,30.19,East,101,0.0,-999.0,87,-99.99,,,-99.99,,2013-03-09 08:41:00,
2013-03-09 00:52:00,32.0,29.0,30.19,East,101,0.0,-999.0,87,-99.99,,,-99.99,,2013-03-09 08:52:00,
2013-03-09 01:01:00,31.0,28.0,30.20,East,101,0.0,-999.0,88,-99.99,,,-99.99,,2013-03-09 09:01:00,
2013-03-09 01:11:00,31.0,28.0,30.20,East,101,0.0,-999.0,88,-99.99,,,-99.99,,2013-03-09 09:11:00,
2013-03-09 01:21:00,31.0,28.0,30.21,East,101,0.0,-999.0,88,-99.99,,,-99.99,,2013-03-09 09:21:00,
2013-03-09 01:31:00,31.0,28.0,30.22,East,101,0.0,-999.0,88,-99.99,,,-99.99,,2013-03-09 09:31:00,
2013-03-09 01:41:00,31.0,28.0,30.22,East,101,0.0,-999.0,88,-99.99,,,-99.99,,2013-03-09 09:41:00,
2013-03-09 01:52:00,31.0,28.0,30.22,East,101,0.0,-999.0,88,-99.99,,,-99.99,,2013-03-09 09:52:00,
2013-03-09 02:01:00,30.0,27.0,30.22,East,101,0.0,-999.0,89,-99.99,,,-99.99,,2013-03-09 10:01:00,
2013-03-09 02:11:00,30.0,27.0,30.22,East,101,0.0,-999.0,89,-99.99,,,-99.99,,2013-03-09 10:11:00,
2013-03-09 02:21:00,30.0,27.0,30.23,East,101,0.0,-999.0,89,-99.99,,,-99.99,,2013-03-09 10:21:00,
2013-03-09 02:31:00,31.0,28.0,30.23,East,101,0.0,-999.0,90,-99.99,,,-99.99,,2013-03-09 10:31:00,
2013-03-09 02:41:00,31.0,28.0,30.23,East,101,0.0,-999.0,90,-99.99,,,-99.99,,2013-03-09 10:41:00,
2013-03-09 02:51:00,31.0,28.0,30.24,East,101,0.0,-999.0,90,-99.99,,,-99.99,,2013-03-09 10:51:00,
2013-03-09 03:01:00,31.0,28.0,30.24,East,101,0.0,-999.0,90,-99.99,,,-99.99,,2013-03-09 11:01:00,
2013-03-09 03:11:00,31.0,28.0,30.24,East,101,0.0,-999.0,90,-99.99,,,-99.99,,2013-03-09 11:11:00,
2013-03-09 03:21:00,31.0,28.0,30.24,East,101,0.0,-999.0,90,-99.99,,,-99.99,,2013-03-09 11:21:00,
2013-03-09 03:31:00,32.0,29.0,30.24,East,101,0.0,-999.0,90,-99.99,,,-99.99,,2013-03-09 11:31:00,
2013-03-09 03:41:00,32.0,29.0,30.24,East,101,0.0,-999.0,90,-99.99,,,-99.99,,2013-03-09 11:41:00,
2013-03-09 03:52:00,32.0,29.0,30.25,East,101,0.0,-999.0,89,-99.99,,,-99.99,,2013-03-09 11:52:00,
2013-03-09 04:01:00,32.0,29.0,30.26,East,101,0.0,-999.0,89,-99.99,,,-99.99,,2013-03-09 12:01:00,
2013-03-09 04:11:00,32.0,29.0,30.26,East,101,0.0,-999.0,89,-99.99,,,-99.99,,2013-03-09 12:11:00,
2013-03-09 04:21:00,32.0,29.0,30.26,East,101,0.0,-999.0,89,-99.99,,,-99.99,,2013-03-09 12:21:00,
2013-03-09 04:31:00,32.0,29.0,30.27,East,101,0.0,-999.0,89,-99.99,,,-99.99,,2013-03-09 12:31:00,
2013-03-09 04:42:00,32.0,29.0,30.27,East,101,0.0,-999.0,89,-99.99,,,-99.99,,2013-03-09 12:42:00,
2013-03-09 04:52:00,32.0,29.0,30.27,East,101,0.0,-999.0,89,-99.99,,,-99.99,,2013-03-09 12:52:00,
2013-03-09 05:02:00,32.0,29.0,30.27,East,101,0.0,-999.0,89,-99.99,,,-99.99,,2013-03-09 13:02:00,
2013-03-09 05:11:00,32.0,29.0,30.27,East,101,0.0,-999.0,89,-99.99,,,-99.99,,2013-03-09 13:11:00,
2013-03-09 05:21:00,32.0,29.0,30.28,East,101,0.0,-999.0,89,-99.99,,,-99.99,,2013-03-09 13:21:00,
2013-03-09 05:31:00,32.0,29.0,30.28,East,101,0.0,-999.0,89,-99.99,,,-99.99,,2013-03-09 13:31:00,
2013-03-09 05:41:00,32.0,29.0,30.28,East,101,0.0,-999.0,89,-99.99,,,-99.99,,2013-03-09 13:41:00,
2013-03-09 05:51:00,32.0,29.0,30.29,East,101,0.0,-999.0,89,-99.99,,,-99.99,,2013-03-09 13:51:00,
2013-03-09 06:01:00,32.0,29.0,30.30,East,101,0.0,-999.0,89,-99.99,,,-99.99,,2013-03-09 14:01:00,
2013-03-09 06:11:00,32.0,29.0,30.30,East,101,0.0,-999.0,89,-99.99,,,-99.99,,2013-03-09 14:11:00,
2013-03-09 06:21:00,32.0,29.0,30.30,East,101,0.0,-999.0,89,-99.99,,,-99.99,,2013-03-09 14:21:00,
2013-03-09 06:31:00,31.0,28.0,30.31,East,101,0.0,-999.0,90,-99.99,,,-99.99,,2013-03-09 14:31:00,
2013-03-09 06:41:00,31.0,28.0,30.31,East,101,0.0,-999.0,90,-99.99,,,-99.99,,2013-03-09 14:41:00,
2013-03-09 06:52:00,31.0,28.0,30.32,East,101,0.0,-999.0,90,-99.99,,,-99.99,,2013-03-09 14:52:00,
2013-03-09 07:01:00,32.0,29.0,30.32,East,101,0.0,-999.0,90,-99.99,,,-99.99,,2013-03-09 15:01:00,
2013-03-09 07:11:00,32.0,29.0,30.32,East,101,0.0,-999.0,90,-99.99,,,-99.99,,2013-03-09 15:11:00,
2013-03-09 07:21:00,32.0,29.0,30.33,East,101,0.0,-999.0,90,-99.99,,,-99.99,,2013-03-09 15:21:00,
2013-03-09 07:31:00,32.0,29.0,30.33,East,101,0.0,-999.0,90,-99.99,,,-99.99,,2013-03-09 15:31:00,
2013-03-09 07:42:00,32.0,29.0,30.33,East,101,0.0,-999.0,90,-99.99,,,-99.99,,2013-03-09 15:42:00,
2013-03-09 07:52:00,33.0,30.0,30.34,East,101,0.0,-999.0,90,-99.99,,,-99.99,,2013-03-09 15:52:00,
2013-03-09 08:01:00,33.0,30.0,30.34,East,101,0.0,-999.0,89,-99.99,,,-99.99,,2013-03-09 16:01:00,
2013-03-09 08:11:00,33.0,30.0,30.34,East,101,0.0,-999.0,89,-99.99,,,-99.99,,2013-03-09 16:11:00,
2013-03-09 08:21:00,34.0,31.0,30.35,East,101,0.0,-999.0,88,-99.99,,,-99.99,,2013-03-09 16:21:00,
2013-03-09 08:31:00,34.0,31.0,30.35,East,101,0.0,-999.0,88,-99.99,,,-99.99,,2013-03-09 16:31:00,
2013-03-09 08:41:00,34.0,31.0,30.35,East,101,0.0,-999.0,88,-99.99,,,-99.99,,2013-03-09 16:41:00,
2013-03-09 08:51:00,35.0,32.0,30.36,East,101,0.0,-999.0,88,-99.99,,,-99.99,,2013-03-09 16:51:00,
2013-03-09 09:01:00,35.0,31.0,30.37,East,101,1.0,-999.0,85,-99.99,,,-99.99,,2013-03-09 17:01:00,
2013-03-09 09:11:00,35.0,31.0,30.37,East,101,1.0,-999.0,85,-99.99,,,-99.99,,2013-03-09 17:11:00,
2013-03-09 09:22:00,36.0,31.0,30.37,ESE,105,0.0,-999.0,83,-99.99,,,-99.99,,2013-03-09 17:22:00,
2013-03-09 09:32:00,37.0,31.0,30.37,SSE,161,2.0,-999.0,79,-99.99,,,-99.99,,2013-03-09 17:32:00,
2013-03-09 09:42:00,37.0,31.0,30.37,SSE,161,2.0,-999.0,79,-99.99,,,-99.99,,2013-03-09 17:42:00,
2013-03-09 09:52:00,38.0,31.0,30.37,SSE,158,1.0,-999.0,77,-99.99,,,-99.99,,2013-03-09 17:52:00,
2013-03-09 10:01:00,40.0,32.0,30.36,SE,142,0.0,-999.0,73,-99.99,,,-99.99,,2013-03-09 18:01:00,
2013-03-09 10:11:00,40.0,32.0,30.36,SE,142,0.0,-999.0,73,-99.99,,,-99.99,,2013-03-09 18:11:00,
2013-03-09 10:21:00,41.0,32.0,30.36,SE,136,1.0,-999.0,71,-99.99,,,-99.99,,2013-03-09 18:21:00,
2013-03-09 10:31:00,42.0,32.0,30.36,SE,137,1.0,-999.0,68,-99.99,,,-99.99,,2013-03-09 18:31:00,
2013-03-09 10:42:00,42.0,32.0,30.36,SE,137,1.0,-999.0,68,-99.99,,,-99.99,,2013-03-09 18:42:00,
2013-03-09 10:52:00,43.0,33.0,30.36,SE,137,0.0,-999.0,68,-99.99,,,-99.99,,2013-03-09 18:52:00,
2013-03-09 11:01:00,45.0,33.0,30.36,East,88,1.0,-999.0,62,-99.99,,,-99.99,,2013-03-09 19:01:00,
2013-03-09 11:11:00,45.0,33.0,30.36,East,88,1.0,-999.0,62,-99.99,,,-99.99,,2013-03-09 19:11:00,
2013-03-09 11:21:00,46.0,33.0,30.36,South,188,1.0,-999.0,60,-99.99,,,-99.99,,2013-03-09 19:21:00,
2013-03-09 11:31:00,46.0,33.0,30.37,South,188,0.0,-999.0,60,-99.99,,,-99.99,,2013-03-09 19:31:00,
2013-03-09 11:41:00,46.0,33.0,30.37,South,188,0.0,-999.0,60,-99.99,,,-99.99,,2013-03-09 19:41:00,
2013-03-09 11:51:00,46.0,32.0,30.37,South,188,1.0,-999.0,58,-99.99,,,-99.99,,2013-03-09 19:51:00,
2013-03-09 12:01:00,48.0,34.0,30.37,South,188,1.0,-999.0,59,-99.99,,,-99.99,,2013-03-09 20:01:00,
2013-03-09 12:11:00,48.0,34.0,30.37,South,188,1.0,-999.0,59,-99.99,,,-99.99,,2013-03-09 20:11:00,
2013-03-09 12:21:00,48.0,34.0,30.36,South,189,1.0,-999.0,58,-99.99,,,-99.99,,2013-03-09 20:21:00,
2013-03-09 12:31:00,49.0,34.0,30.37,South,189,2.0,-999.0,56,-99.99,,,-99.99,,2013-03-09 20:31:00,
2013-03-09 12:41:00,49.0,34.0,30.37,South,189,2.0,-999.0,56,-99.99,,,-99.99,,2013-03-09 20:41:00,
2013-03-09 12:52:00,50.0,34.0,30.37,South,189,1.0,-999.0,55,-99.99,,,-99.99,,2013-03-09 20:52:00,
2013-03-09 13:01:00,50.0,34.0,30.36,SSW,205,0.0,-999.0,53,-99.99,,,-99.99,,2013-03-09 21:01:00,
2013-03-09 13:11:00,50.0,34.0,30.36,SSW,205,0.0,-999.0,53,-99.99,,,-99.99,,2013-03-09 21:11:00,
2013-03-09 13:21:00,51.0,34.0,30.37,West,271,1.0,-999.0,53,-99.99,,,-99.99,,2013-03-09 21:21:00,
2013-03-09 13:31:00,52.0,34.0,30.36,West,270,1.0,-999.0,50,-99.99,,,-99.99,,2013-03-09 21:31:00,
2013-03-09 13:41:00,52.0,34.0,30.36,West,270,1.0,-999.0,50,-99.99,,,-99.99,,2013-03-09 21:41:00,
2013-03-09 13:51:00,52.0,34.0,30.36,West,259,2.0,-999.0,51,-99.99,,,-99.99,,2013-03-09 21:51:00,
2013-03-09 14:01:00,51.0,34.0,30.36,WSW,254,2.0,-999.0,52,-99.99,,,-99.99,,2013-03-09 22:01:00,
2013-03-09 14:11:00,51.0,34.0,30.36,WSW,254,2.0,-999.0,52,-99.99,,,-99.99,,2013-03-09 22:11:00,
2013-03-09 14:21:00,53.0,34.0,30.36,SSW,193,2.0,-999.0,49,-99.99,,,-99.99,,2013-03-09 22:21:00,
2013-03-09 14:32:00,54.0,35.0,30.36,West,264,1.0,-999.0,48,-99.99,,,-99.99,,2013-03-09 22:32:00,
2013-03-09 14:41:00,54.0,35.0,30.36,West,264,1.0,-999.0,48,-99.99,,,-99.99,,2013-03-09 22:41:00,
2013-03-09 14:51:00,53.0,34.0,30.36,ENE,66,1.0,-999.0,48,-99.99,,,-99.99,,2013-03-09 22:51:00,
2013-03-09 15:01:00,53.0,34.0,30.36,NE,40,0.0,-999.0,48,-99.99,,,-99.99,,2013-03-09 23:01:00,
2013-03-09 15:11:00,53.0,34.0,30.36,NE,40,0.0,-999.0,48,-99.99,,,-99.99,,2013-03-09 23:11:00,
2013-03-09 15:21:00,53.0,34.0,30.37,SSE,165,1.0,-999.0,49,-99.99,,,-99.99,,2013-03-09 23:21:00,
2013-03-09 15:32:00,53.0,34.0,30.36,SSE,166,0.0,-999.0,48,-99.99,,,-99.99,,2013-03-09 23:32:00,
2013-03-09 15:41:00,53.0,34.0,30.36,SSE,166,0.0,-999.0,48,-99.99,,,-99.99,,2013-03-09 23:41:00,
2013-03-09 15:52:00,53.0,34.0,30.36,SSE,166,0.0,-999.0,48,-99.99,,,-99.99,,2013-03-09 23:52:00,
2013-03-09 16:01:00,53.0,34.0,30.36,SSE,166,1.0,-999.0,49,-99.99,,,-99.99,,2013-03-10 00:01:00,
2013-03-09 16:11:00,53.0,34.0,30.36,SSE,166,1.0,-999.0,49,-99.99,,,-99.99,,2013-03-10 00:11:00,
2013-03-09 16:22:00,53.0,35.0,30.37,SSE,166,1.0,-999.0,50,-99.99,,,-99.99,,2013-03-10 00:22:00,
2013-03-09 16:31:00,52.0,35.0,30.37,SSE,166,0.0,-999.0,52,-99.99,,,-99.99,,2013-03-10 00:31:00,
2013-03-09 16:42:00,52.0,35.0,30.37,SSE,166,0.0,-999.0,52,-99.99,,,-99.99,,2013-03-10 00:42:00,
2013-03-09 16:51:00,51.0,35.0,30.37,SSE,166,0.0,-999.0,55,-99.99,,,-99.99,,2013-03-10 00:51:00,
2013-03-09 17:01:00,51.0,36.0,30.37,SSE,166,0.0,-999.0,57,-99.99,,,-99.99,,2013-03-10 01:01:00,
2013-03-09 17:11:00,51.0,36.0,30.37,SSE,166,0.0,-999.0,57,-99.99,,,-99.99,,2013-03-10 01:11:00,
2013-03-09 17:21:00,51.0,38.0,30.37,SSE,166,0.0,-999.0,61,-99.99,,,-99.99,,2013-03-10 01:21:00,
2013-03-09 17:31:00,51.0,38.0,30.37,SSE,166,0.0,-999.0,62,-99.99,,,-99.99,,2013-03-10 01:31:00,
2013-03-09 17:41:00,51.0,38.0,30.37,SSE,166,0.0,-999.0,62,-99.99,,,-99.99,,2013-03-10 01:41:00,
2013-03-09 17:51:00,50.0,39.0,30.38,SSE,166,0.0,-999.0,66,-99.99,,,-99.99,,2013-03-10 01:51:00,
2013-03-09 18:01:00,50.0,39.0,30.38,SSE,166,0.0,-999.0,66,-99.99,,,-99.99,,2013-03-10 02:01:00,
2013-03-09 18:11:00,50.0,39.0,30.38,SSE,166,0.0,-999.0,66,-99.99,,,-99.99,,2013-03-10 02:11:00,
2013-03-09 18:22:00,49.0,39.0,30.39,SSE,166,0.0,-999.0,67,-99.99,,,-99.99,,2013-03-10 02:22:00,
2013-03-09 18:31:00,47.0,37.0,30.40,SSE,166,0.0,-999.0,69,-99.99,,,-99.99,,2013-03-10 02:31:00,
2013-03-09 18:41:00,47.0,37.0,30.40,SSE,166,0.0,-999.0,69,-99.99,,,-99.99,,2013-03-10 02:41:00,
2013-03-09 18:52:00,46.0,36.0,30.40,SSE,166,0.0,-999.0,68,-99.99,,,-99.99,,2013-03-10 02:52:00,
2013-03-09 19:01:00,45.0,36.0,30.40,SSE,166,0.0,-999.0,70,-99.99,,,-99.99,,2013-03-10 03:01:00,
2013-03-09 19:11:00,44.0,37.0,30.41,SSE,166,0.0,-999.0,75,-99.99,,,-99.99,,2013-03-10 03:11:00,
2013-03-09 19:21:00,44.0,37.0,30.41,SSE,166,0.0,-999.0,75,-99.99,,,-99.99,,2013-03-10 03:21:00,
2013-03-09 19:31:00,43.0,36.0,30.41,SSE,166,0.0,-999.0,76,-99.99,,,-99.99,,2013-03-10 03:31:00,
2013-03-09 19:41:00,43.0,36.0,30.41,SSE,166,0.0,-999.0,76,-99.99,,,-99.99,,2013-03-10 03:41:00,
2013-03-09 19:52:00,42.0,35.0,30.42,SSE,166,0.0,-999.0,77,-99.99,,,-99.99,,2013-03-10 03:52:00,
2013-03-09 20:01:00,41.0,35.0,30.42,SSE,166,0.0,-999.0,78,-99.99,,,-99.99,,2013-03-10 04:01:00,
2013-03-09 20:11:00,41.0,35.0,30.42,SSE,166,0.0,-999.0,78,-99.99,,,-99.99,,2013-03-10 04:11:00,
2013-03-09 20:21:00,41.0,35.0,30.43,SSE,166,0.0,-999.0,79,-99.99,,,-99.99,,2013-03-10 04:21:00,
2013-03-09 20:31:00,40.0,35.0,30.43,SSE,166,0.0,-999.0,81,-99.99,,,-99.99,,2013-03-10 04:31:00,
2013-03-09 20:41:00,40.0,35.0,30.43,SSE,166,0.0,-999.0,81,-99.99,,,-99.99,,2013-03-10 04:41:00,
2013-03-09 20:51:00,39.0,34.0,30.44,SSE,166,0.0,-999.0,82,-99.99,,,-99.99,,2013-03-10 04:51:00,
2013-03-09 21:01:00,39.0,34.0,30.45,SSE,166,0.0,-999.0,82,-99.99,,,-99.99,,2013-03-10 05:01:00,
2013-03-09 21:11:00,39.0,34.0,30.45,SSE,166,0.0,-999.0,82,-99.99,,,-99.99,,2013-03-10 05:11:00,
2013-03-09 21:21:00,38.0,33.0,30.45,SSE,166,0.0,-999.0,83,-99.99,,,-99.99,,2013-03-10 05:21:00,
2013-03-09 21:31:00,38.0,34.0,30.45,SSE,166,0.0,-999.0,84,-99.99,,,-99.99,,2013-03-10 05:31:00,
2013-03-09 21:42:00,37.0,33.0,30.46,SSE,166,0.0,-999.0,84,-99.99,,,-99.99,,2013-03-10 05:42:00,
2013-03-09 21:52:00,37.0,33.0,30.46,SSE,166,0.0,-999.0,84,-99.99,,,-99.99,,2013-03-10 05:52:00,
2013-03-09 22:01:00,36.0,32.0,30.46,SSE,166,0.0,-999.0,85,-99.99,,,-99.99,,2013-03-10 06:01:00,
2013-03-09 22:11:00,36.0,32.0,30.46,SSE,166,0.0,-999.0,85,-99.99,,,-99.99,,2013-03-10 06:11:00,
2013-03-09 22:21:00,36.0,32.0,30.47,SSE,166,0.0,-999.0,86,-99.99,,,-99.99,,2013-03-10 06:21:00,
2013-03-09 22:31:00,36.0,33.0,30.47,SSE,166,0.0,-999.0,87,-99.99,,,-99.99,,2013-03-10 06:31:00,
2013-03-09 22:41:00,35.0,32.0,30.48,SSE,166,0.0,-999.0,87,-99.99,,,-99.99,,2013-03-10 06:41:00,
2013-03-09 22:51:00,35.0,32.0,30.48,SSE,166,0.0,-999.0,87,-99.99,,,-99.99,,2013-03-10 06:51:00,
2013-03-09 23:01:00,35.0,32.0,30.48,SSE,166,0.0,-999.0,87,-99.99,,,-99.99,,2013-03-10 07:01:00,
2013-03-09 23:11:00,34.0,31.0,30.48,SSE,166,0.0,-999.0,87,-99.99,,,-99.99,,2013-03-10 07:11:00,
2013-03-09 23:21:00,34.0,31.0,30.48,SSE,166,0.0,-999.0,87,-99.99,,,-99.99,,2013-03-10 07:21:00,
2013-03-09 23:31:00,34.0,31.0,30.48,SSE,166,0.0,-999.0,88,-99.99,,,-99.99,,2013-03-10 07:31:00,
2013-03-09 23:41:00,34.0,31.0,30.48,SSE,166,0.0,-999.0,89,-99.99,,,-99.99,,2013-03-10 07:41:00,
2013-03-09 23:52:00,34.0,31.0,30.48,SSE,166,0.0,-999.0,89,-99.99,,,-99.99,,2013-03-10 07:52:00,